Meteo Giornale » Osservazioni meteo Stati Uniti (USA) » Philly Wings F

ore: 20:35 - Osservazioni Meteo Philly Wings F
Lat. 40° 8' N Lon. 75° 16' W Alt. 92 metri s.l.m.

sereno

21 °C

Sereno

Temp. 24 Ore

19 °C

27 °C

Nord

0 Km/h

Dew point 21 °C

Umidità 100 %

Visibilità  10 Km

Il sole sorge alle ore 06:28

Il sole tramonta alle ore 19:34

Data e Ora Cielo e Fenomeni T °C DP °C Um. % Pres. hPa Vis. km Vento km/h
Oggi h: 20:35 sereno Sereno 21 21 100 1018 10 N 0
Oggi h: 20:15 nuvoloso Nuvoloso 21 21 100 1018 10 N 0
Oggi h: 19:55 nuvoloso Nuvoloso 22 21 94 1018 11 N 0
Oggi h: 19:35 coperto Coperto 23 22 94 1018 10 N 0
Oggi h: 19:15 coperto Coperto 24 22 88 1018 10 N 0
Oggi h: 18:55 molto_nuvoloso Molto Nuvoloso 24 21 83 1018 10 N 0
Oggi h: 18:35 coperto Coperto 25 20 73 1019 10 N 0
Oggi h: 18:15 coperto Coperto 24 20 78 1019 10 N 0
Oggi h: 17:55 coperto Coperto 25 20 73 1019 10 N 5.5
Oggi h: 17:35 coperto Coperto 24 21 83 1019 10 N 0
Oggi h: 17:15 molto_nuvoloso Molto Nuvoloso 24 21 83 1019 10 N 0
Oggi h: 16:55 molto_nuvoloso Molto Nuvoloso 24 21 83 1019 10 N 0
Oggi h: 16:35 coperto_pioggia Pioggia 24 21 83 1019 10 N 0
Oggi h: 16:15 coperto_pioggia Pioggia 24 20 78 1019 10 N 5.5
Oggi h: 15:55 coperto_pioggia Pioggia 25 19 69 1019 10 N 5.5
Oggi h: 15:35 coperto Coperto 25 19 69 1020 10 N 5.5
Oggi h: 15:15 coperto Coperto 25 19 69 1020 10 N 5.5
Oggi h: 14:55 coperto Coperto 25 19 69 1020 10 N 0
Oggi h: 14:35 coperto Coperto 25 19 69 1020 10 N 0
Oggi h: 14:15 coperto Coperto 26 19 65 1020 10 N 5.5
Oggi h: 13:55 coperto Coperto 25 19 69 1020 10 N 0
Oggi h: 13:35 coperto Coperto 26 19 65 1020 10 N 0
Oggi h: 13:15 coperto Coperto 27 19 61 1020 10 N 5.5
Oggi h: 12:55 molto_nuvoloso Molto Nuvoloso 26 19 65 1020 10 N 5.5
Oggi h: 12:35 molto_nuvoloso Molto Nuvoloso 25 18 65 1020 10 N 0
Oggi h: 12:15 molto_nuvoloso Molto Nuvoloso 25 19 69 1020 10 N 5.5
Oggi h: 11:55 molto_nuvoloso Molto Nuvoloso 24 18 69 1020 10 N 5.5
Oggi h: 11:35 nuvoloso Nuvoloso 24 19 73 1020 10 N 5.5
Oggi h: 11:15 nuvoloso Nuvoloso 23 19 78 1021 10 E 7.4
Oggi h: 10:55 molto_nuvoloso Molto Nuvoloso 23 19 78 1021 10 N 0
Oggi h: 10:35 coperto Coperto 22 19 83 1021 10 N 0
Oggi h: 10:15 coperto Coperto 22 19 83 1021 10 E/NE 7.4
Oggi h: 09:55 coperto Coperto 22 19 83 1021 10 N 0
Oggi h: 09:35 coperto Coperto 22 19 83 1021 10 E/NE 7.4
Oggi h: 09:15 coperto Coperto 22 19 83 1021 10 N 5.5
Oggi h: 08:55 nuvoloso Nuvoloso 22 20 88 1021 10 NE 7.4
Oggi h: 08:35 nuvoloso Nuvoloso 21 20 94 1021 10 N 0
Oggi h: 08:15 sereno Sereno 20 20 100 1020 10 N 0
Oggi h: 07:55 nuvoloso Nuvoloso 20 20 100 1020 10 N 0
Oggi h: 07:35 foschia Foschia 20 20 100 1020 11 N 0
Oggi h: 07:15 coperto Coperto 19 19 100 1020 11 N 0
Oggi h: 06:55 foschia Foschia 19 19 100 1020 5 N 0
Oggi h: 06:35 foschia Foschia 19 19 100 1020 8 N 0
Oggi h: 06:15 sereno Sereno 19 19 100 1020 11 N 0
Oggi h: 05:55 sereno Sereno 19 19 100 1019 10 N 0
Oggi h: 05:35 sereno Sereno 19 19 100 1019 10 N 0
Oggi h: 05:15 sereno Sereno 20 20 100 1019 10 N 5.5
Oggi h: 04:55 sereno Sereno 20 20 100 1019 10 N 0
Oggi h: 04:35 foschia Foschia 20 20 100 1019 6 N 0
Oggi h: 04:15 foschia Foschia 20 20 100 1019 2 N 0
Oggi h: 03:55 foschia Foschia 20 20 100 1019 8 N 0
Oggi h: 03:35 coperto Coperto 21 21 100 1019 10 N 0
Oggi h: 03:15 foschia Foschia 20 20 100 1019 3 N 5.5
Oggi h: 02:55 nebbia Nebbia 20 20 100 1019 2 N 0
Oggi h: 02:35 foschia Foschia 20 20 100 1019 2 N 0
Oggi h: 02:15 foschia Foschia 20 20 100 1019 2 N 0
Oggi h: 01:55 nebbia Nebbia 20 20 100 1019 2 N 0
Oggi h: 01:35 nebbia Nebbia 20 20 100 1019 2 N 0
Oggi h: 01:15 nebbia Nebbia 20 20 100 1019 2 N 0
Oggi h: 00:55 foschia Foschia 21 21 100 1019 2 N 0
Oggi h: 00:35 foschia Foschia 21 21 100 1019 8 N 0
Oggi h: 00:15 coperto Coperto 22 22 100 1020 10 N 0
Ieri h: 23:55 molto_nuvoloso Molto Nuvoloso 22 22 100 1020 10 N 0
Ieri h: 23:35 foschia Foschia 21 21 100 1020 11 N 7.4
Ieri h: 23:15 nuvoloso Nuvoloso 22 21 94 1019 11 N 0
Ieri h: 22:55 nuvoloso Nuvoloso 22 22 100 1019 10 N 0
Ieri h: 22:35 coperto_pioggia Pioggia 23 22 94 1019 10 N 0
Ieri h: 22:15 coperto_pioggia Pioggia Foschia 23 23 100 1019 8 O/NO 9.3
Ieri h: 21:55 coperto Coperto 23 22 94 1019 10 N 0
Ieri h: 21:35 coperto Coperto 23 22 94 1019 10 N 0